Weather History for Wink, TX

Change the Weather History Date:

Saturday, August 3, 2013

  Actual Average Record
Temperature  
Mean Temperature 90 °F -  
Max Temperature 105 °F 95 °F 109 °F (2003)
Min Temperature 75 °F 69 °F 60 °F (1973)
Cooling Degree Days 24    
Growing Degree Days 40 (Base 50)    
Moisture  
Dew Point 52 °F    
Average Humidity 29    
Maximum Humidity 48    
Minimum Humidity 14    
Precipitation  
Precipitation 0.00 in - - ()
Sea Level Pressure  
Sea Level Pressure 29.81 in    
Wind  
Wind Speed 12 mph (SE)    
Max Wind Speed 20 mph    
Max Gust Speed 26 mph    
Visibility 10 miles    
Events      
Averages and records for this station are not official NWS values.
T = Trace of Precipitation, MM = Missing Value Source: NWS Daily Summary

Daily Weather History Graph

Daily Weather History Graph

Search for Another Location

Airport:

Trip Planner

Search our weather history database for the weather conditions in past years. The results will help you decide how hot, cold, wet, or windy it might be!

Date:

Astronomy

Aug. 03, 2013 Rise Set
Actual Time 7:10 AM CDT 8:47 PM CDT
Civil Twilight 6:43 AM CDT 9:13 PM CDT
Nautical Twilight 6:11 AM CDT 9:45 PM CDT
Astronomical Twilight 5:38 AM CDT 10:18 PM CDT
Moon 4:23 AM CDT (8/3) 6:29 PM CDT (8/3)
Length of Visible Light 14h 30m
Length of Day
13h 37m
Waning Crescent, 9% of the Moon is Illuminated
Aug 3
Waning Crescent
Aug 6
New
Aug 14
First Quarter
Aug 20
Full
Aug 28
Last Quarter

Hourly Weather History & Observations

Time (CDT) Temp. Heat Index Dew Point Humidity Pressure Visibility Wind Dir Wind Speed Gust Speed Precip Events Conditions
12:53 AM 84.9 °F 83.3 °F 54.0 °F 34% 29.80 in 10.0 mi SSE 12.7 mph - N/A   Clear
1:53 AM 84.0 °F 82.5 °F 53.1 °F 34% 29.81 in 10.0 mi SSE 13.8 mph - N/A   Clear
2:53 AM 81.0 °F 80.4 °F 53.1 °F 38% 29.81 in 10.0 mi SSE 11.5 mph - N/A   Clear
3:53 AM 80.1 °F 79.9 °F 53.1 °F 39% 29.80 in 10.0 mi SSE 10.4 mph - N/A   Clear
4:53 AM 79.0 °F - 54.0 °F 42% 29.81 in 10.0 mi SE 9.2 mph - N/A   Clear
5:53 AM 79.0 °F - 54.0 °F 42% 29.81 in 10.0 mi SE 12.7 mph - N/A   Clear
6:53 AM 77.0 °F - 54.0 °F 45% 29.83 in 10.0 mi SE 10.4 mph - N/A   Scattered Clouds
7:53 AM 75.9 °F - 55.0 °F 48% 29.84 in 10.0 mi SE 9.2 mph - N/A   Partly Cloudy
8:53 AM 81.0 °F 81.0 °F 57.0 °F 44% 29.84 in 10.0 mi SSE 15.0 mph 20.7 mph N/A   Partly Cloudy
9:53 AM 84.9 °F 83.9 °F 57.0 °F 38% 29.84 in 10.0 mi SSE 10.4 mph - N/A   Mostly Cloudy
10:53 AM 90.0 °F 88.6 °F 57.0 °F 33% 29.85 in 10.0 mi SSE 9.2 mph - N/A   Partly Cloudy
11:53 AM 93.9 °F 91.7 °F 54.0 °F 26% 29.84 in 10.0 mi South 8.1 mph - N/A   Clear
12:53 PM 99.0 °F 96.5 °F 53.1 °F 21% 29.82 in 10.0 mi Variable 3.5 mph - N/A   Clear
1:53 PM 100.9 °F - 52.0 °F 19% 29.81 in 10.0 mi SE 8.1 mph - N/A   Clear
2:53 PM 100.0 °F - 50.0 °F 18% 29.80 in 10.0 mi ESE 9.2 mph - N/A   Partly Cloudy
3:53 PM 102.9 °F - 46.9 °F 15% 29.78 in 10.0 mi NE 8.1 mph - N/A   Clear
4:53 PM 104.0 °F - 46.0 °F 14% 29.75 in 10.0 mi East 8.1 mph - N/A   Scattered Clouds
5:53 PM 102.9 °F - 48.0 °F 16% 29.75 in 10.0 mi SE 12.7 mph 20.7 mph N/A   Clear
6:53 PM 100.9 °F - 48.9 °F 17% 29.75 in 10.0 mi SSE 16.1 mph 19.6 mph N/A   Clear
7:53 PM 100.0 °F - 46.9 °F 16% 29.75 in 10.0 mi ESE 11.5 mph - N/A   Clear
8:53 PM 95.0 °F - 48.9 °F 21% 29.77 in 10.0 mi SE 19.6 mph 26.5 mph N/A   Clear
9:53 PM 91.9 °F 89.5 °F 54.0 °F 27% 29.79 in 10.0 mi SSE 18.4 mph - N/A   Clear
10:53 PM 89.1 °F 86.7 °F 53.1 °F 29% 29.83 in 10.0 mi SSE 16.1 mph 24.2 mph N/A   Clear
11:53 PM 87.1 °F 85.1 °F 54.0 °F 32% 29.85 in 10.0 mi SSE 16.1 mph - N/A   Clear